User: anonymous   Login
Location: Unspecified
(0.0000°N, 0.0000°E)
Time: 04:24:01
(UTC+00:00)
Language:

Explorer 7 - Orbit

View from above orbital plane
View from above orbital plane
View from above satellite
View from above satellite

Ground track
Ground track

The orbit data is extracted from the following two-line orbital elements,

1 00022U 59009A   15244.82833245  .00001156  00000-0  11458-3 0  9993
2 00022  50.2854  24.7474 0146435  59.5576 301.9745 14.92491589963546
Epoch (UTC): 01 September 2015 19:52:47
Eccentricity: 0.0146435
inclination: 50.2854°
perigee height: 488 km
apogee height: 692 km
right ascension of ascending node: 24.7474°
argument of perigee: 59.5576°
revolutions per day: 14.92491589
mean anomaly at epoch: 301.9745°
orbit number at epoch: 96354

The dashed part of the orbit path shows where the satellite is in the earth's shadow,  

DLR